Overview Statistics Trail Chart Weather Telemetry Raw packets
 

This is the latest recevied weather packets stored in our database for station/object 4S6DRJ-13. If no packets are shown the sender has not sent any weather packets the latest 10 day(s).

<< 309 310 311 312 313 314 315 >>
Time Temp. Humidity Pressure Rain* Wind** Luminosity Snow
1788010117 28.33° C 83% 1009.2 hPa 0 mm 0.89 m/s, 167° 0 W/m² -
1788010057 28.33° C 82% 1009.2 hPa 0 mm 0.89 m/s, 285° 0 W/m² -
1788009996 28.33° C 82% 1009.4 hPa 0 mm 2.24 m/s, 281° 0 W/m² -
1788009935 28.33° C 82% 1009.1 hPa 0 mm 0.45 m/s, 251° 0 W/m² -
1788009873 28.33° C 82% 1009.3 hPa 0 mm 0.89 m/s, 268° 0 W/m² -
1788009813 28.33° C 82% 1009.3 hPa 0 mm 1.34 m/s, 234° 0 W/m² -
1788009752 28.33° C 82% 1009.1 hPa 0 mm 0.45 m/s, 136° 0 W/m² -
1788009690 28.33° C 82% 1009.1 hPa 0 mm 1.79 m/s, 236° 0 W/m² -
1788009630 28.33° C 82% 1009.2 hPa 0 mm 1.34 m/s, 271° 0 W/m² -
1788009569 28.33° C 82% 1009.4 hPa 0 mm 0.89 m/s, 300° 0 W/m² -
1788009508 28.33° C 82% 1009.1 hPa 0 mm 1.79 m/s, 263° 0 W/m² -
1788009447 28.33° C 82% 1009.1 hPa 0 mm 0.45 m/s, 225° 0 W/m² -
1788009386 28.33° C 82% 1009.1 hPa 0 mm 1.79 m/s, 276° 0 W/m² -
1788009326 28.33° C 82% 1009 hPa 0 mm 0.89 m/s, 184° 0 W/m² -
1788009264 28.33° C 82% 1009 hPa 0 mm 0 m/s 0 W/m² -
1788009203 28.33° C 82% 1009.1 hPa 0 mm 1.34 m/s, 272° 0 W/m² -
1788009146 28.33° C 82% 1009.1 hPa 0 mm 1.34 m/s, 200° 0 W/m² -
1788009082 28.33° C 82% 1009 hPa 0 mm 0.45 m/s, 182° 0 W/m² -
1788009020 28.33° C 82% 1008.9 hPa 0 mm 0.89 m/s, 297° 0 W/m² -
1788008960 28.33° C 82% 1008.9 hPa 0 mm 0.89 m/s, 231° 0 W/m² -
1788008898 28.33° C 82% 1009 hPa 0 mm 0.45 m/s, 190° 0 W/m² -
1788008837 28.33° C 81% 1008.9 hPa 0 mm 0.89 m/s, 14° 0 W/m² -
1788008776 28.33° C 81% 1009 hPa 0 mm 1.34 m/s, 356° 0 W/m² -
1788008716 28.33° C 81% 1008.9 hPa 0 mm 1.34 m/s, 116° 0 W/m² -
1788008654 28.33° C 81% 1008.8 hPa 0 mm 0.45 m/s, 258° 0 W/m² -

* Rain latest hour (hover to see other rain measurements)
** Current wind speed in m/s (hover to see current wind gust speed)